Main page
METAR-TAF:

METAR-TAF

Airports :

Fernandina Beach Municipal Airport

Fernandina Beach, Florida, United States

latitude: 30-36-43N, longitude: 081-27-40W, elevation: 16 ft

Current weather observation

The report was made 25 minutes ago, at 04:35 UTC
Wind 5 mph from the East/Southeast
Temperature 73°F
Humidity 73%
Pressure 30.01 in. Hg
Visibility: 10 miles

METAR: KFHB 240435Z AUTO 12004KT 10SM 23/18 A3001 RMK AO2 T02310180

Time: 01:00 (05:00 UTC)


TAF: missing

Weather observations and forecasts of more than 4000 airports (METAR and TAF reports).

The available stations are represented by yellow and red dots on the map.

Hover mouse over dot to see the name of the station.

Then click to see weather observations and forecasts.

To change the map : click on the green buttons with a black cross to zoom in, on the green button with a dash to zoom out, or on the green arrows for adjacent maps.


METAR-TAF: